Regional Weather Roundup
Issued by NWS Charleston, SC

Current Version | Previous Version | Graphics & Text | Print | Product List | Glossary On
Versions: 1 2 3 4 5 6 7 8 9 10 11 12 13 14 15 16 17 18 19 20 21 22 23 24 25 26 27 28 29 30 31 32 33 34 35 36 37 38 39 40 41 42 43 44 45 46 47 48 49 50
000 ASUS42 KCHS 022127 RWRCHS REGIONAL WEATHER ROUNDUP NATIONAL WEATHER SERVICE CHARLESTON SC 500 PM EDT SUN AUG 02 2015 NOTE: "FAIR" INDICATES FEW OR NO CLOUDS BELOW 12,000 FEET WITH NO SIGNIFICANT WEATHER AND/OR OBSTRUCTIONS TO VISIBILITY. NOT ALL STATIONS ARE QUALITY CONTROLLED BY THE NATIONAL WEATHER SERVICE. USE DATA WITH CAUTION...ESPECIALLY DEWPOINT OBSERVATIONS. SCZ027-030-031-034>040-042>050-022200- ...SOUTHEAST SOUTH CAROLINA... CITY SKY/WX TMP DP RH WIND PRES REMARKS N CHARLESTON PTSUNNY 81 72 74 SE12 29.91F WATERFRONT PRK N/A 77 74 91 SE12 29.89F MOUNT PLEASANT FAIR 81 73 78 SE6 29.92S JOHNS ISLAND CLOUDY 81 75 83 SE9 29.92S PINOPOLIS NOT AVBL MONCKS CORNER FAIR 82 72 69 S8 29.92R SUMMERVILLE FAIR 86 72 62 SE3 29.92S HX 92 BEAUFORT MCAS MOSUNNY 82 76 81 E14 29.91S BEAUFORT ARPT MOCLDY 82 77 83 E10 29.91S HX 91 HILTON HEAD IS DRIZZLE 82 77 83 SE5 29.92S HX 91 WALTERBORO PTCLDY 88 73 62 S8 29.91F HX 96 ALLENDALE FAIR 88 72 58 SE12 29.88S HX 94 ...SOUTHERN MIDLANDS AND PEE DEE... CITY SKY/WX TMP DP RH WIND PRES REMARKS GEORGETOWN NOT AVBL KINGSTREE NOT AVBL ORANGEBURG MOSUNNY 89 69 51 S15 29.90S HX 93 BARNWELL FAIR 90 70 51 SE14 29.89S HX 95 AIKEN FAIR 90 64 43 SE8 29.92R HX 91 MANNING RAIN 84 68 58 E7 29.92R COLUMBIA PTSUNNY 93 65 39 SE16 29.87F HX 95 SUMTER MOSUNNY 89 65 45 S7 29.87F HX 90 FLORENCE MOSUNNY 86 68 54 SE16 29.91R MYRTLE BEACH MOSUNNY 86 73 66 S14 29.95S HX 93 N MYRTLE BEACH PTSUNNY 84 74 71 S10 29.93F HX 91 $$ GAZ063-065-086>088-099>101-113>116-118-119-134>141-150-022200- ...SOUTHEAST GEORGIA... CITY SKY/WX TMP DP RH WIND PRES REMARKS SAVANNAH ARPT PTSUNNY 81 76 84 SE3 29.90F HUNTER AAF PTSUNNY 82 79 89 S7 29.88R HX 93 FORT STEWART NOT AVBL STATESBORO PTSUNNY 84 77 80 SE6 29.89R HX 93 SYLVANIA CLEAR 88 75 65 SE8 29.89S HX 98 CLAXTON NOT AVBL ...CSRA...CENTRAL AND FAR SOUTHEAST GEORGIA... CITY SKY/WX TMP DP RH WIND PRES REMARKS THOMSON MOSUNNY 83 76 80 NE10 29.93F HX 91 AUGUSTA-BUSH MOSUNNY 92 72 51 SE14G23 29.85F HX 99 AUGUSTA-DANIEL MOSUNNY 93 66 40 S12 29.87F HX 96 SWAINSBORO FAIR 91 73 55 E9G16 29.89R HX 100 VIDALIA MOSUNNY 88 75 66 E21 29.88R HX 97 EASTMAN FAIR 91 72 52 E8 29.89S HX 98 HAZLEHURST FAIR 91 74 57 E16G22 29.85S HX 101 ALMA HVY RAIN 78 75 90 SE9 29.87R FOG WAYCROSS CLOUDY 83 78 87 SE8 29.87S HX 92 JESUP CLOUDY 86 77 74 S9 29.88S HX 97 BAXLEY FAIR 84 77 79 S5 29.86S HX 94 BRUNSWICK CLOUDY 77 73 88 SW16G26 29.91R SAINT SIMONS CLOUDY 77 73 87 SW15G26 29.89R $$ SCZ027-028-034-036>038-045-046-048>050-GAZ119-141-022200- ...LAKE AND SUPPLEMENTAL COASTAL OBSERVATIONS... STATION/POSITION TIME TEMP WIND PRES WAVE SWELL AIR SEA DIR/SP/G HT/PER HT/PER/DIR (UTC) (F) (DEG/KT/KT) (MB) (FT/S) (FT/S/D) UPR LAKE MARION NOT AVBL WINYAH BAY 2045 82 160/ 9 1012.0F LAKE MURRAY 2000 96 190/ 3/ 4 1010.8F ACE BASIN NERRS 2000 82 110/ 3 1013.0F FORT PULASKI 2100 81 86 150/ 7/ 11 1013.1S SAPELO ISLAND 2100 84 150/ 7 1012.0S $$ ANZ835-935-AMZ111-154-330-350-352-354-370-450-454-472-022200- ...C-MAN AND BUOY OBSERVATIONS... STATION/POSITION TIME TEMP WIND PRES WAVE SWELL AIR SEA DIR/SP/G HT/PER HT/PER/DIR (UTC) (F) (DEG/KT/KT) (MB) (FT/S) (FT/S/D) BUOY 41004 2050 79 83 190/ 6/ 8 1013.6S 3/ 6 3/ 6 BUOY 41008 2050 82 84 170/ 14/ 16 1012.5S 3/ 6 2/100/11 FOLLY BEACH CMAN 2100 78 140/ 14/ 16 1013.1F CAPERS NEARSHORE 2008 78 180/ 10/ 14 1013.6F FRIPP NEARSHORE NOT AVBL STATION/POSITION TIME TEMP WIND PRES WAVE SWELL AIR SEA DIR/SP/G HT/PER HT/PER/DIR (UTC) (F) (DEG/KT/KT) (MB) (FT/S) (FT/S/D) 5E ST. MARYS GA 2021 83 N/A 4/ 5 2/110/11 FRYING PAN BUOY 2050 81 83 160/ 16/ 19 1014.5F 5/ 7 3/190/ 7 BUOY 41025 2050 83 86 210/ 17/ 21 1013.8F 3/ 7 2/200/ 7 CAPE LOOKOUT NC 2100 83 190/ 16/ 18 1013.9R BUOY 41002 2050 76 81 100/ 2/ 4 1017.3R 6/ 7 5/250/ 7 BUOY 41010 2020 83 84 170/ 14/ 16 1015.1F ST AUGUSTINE FL 2100 85 83 200/ 19/ 22 1012.7R $$

USA.gov is the U.S. government's official web portal to all federal, state and local government web resources and services.